RADUGA-1M 2 [+]

Last updated on Aug. 12, 2020, 5:32 a.m. UTC

1 36358U 10002A   20224.76165300 -.00000183  00000-0  00000-0 0  9999
2 36358   0.0438 252.5860 0002651 265.0592 162.2108  1.00273521 28688
UTC
Height (km)
Latitude
Longitude
Inclination
Orbital Period
UTC large
Height (km)
Speed (km/s)
/
Latitude / Longitude
Inclination (degrees)
Orbital Period (minutes)
Azimuth
Elevation
Range (km)
Doppler Factor
iOS Compass Heading
iOS Angle

Next 30 passes for location: Hong Kong

Rise time Rise Azimuth (degrees) Set time Set Azimuth (degrees) Duration Max altitude (degrees)

No matching passes for this satellites